Donnes mto: Actuelle vendredi, 23/02/2018 07:05
Date Horaire Temp. E. Hum. E. P.atmo. Pluie Vent Direction Direction Ensoleilleme Ev.Tr. Solaire P. de rose Temp au vent Rafales
23/02/2018 07:05 -0,5 C 89 % 1010,9 hPa 0,0 mm 0,0 km/h (0 Bft) N 359 0 min 0,000 mm 0 W/m -2,1 C -0,5 C 0,0 km/h (0 Bft)
23/02/2018 07:00 -0,6 C 89 % 1010,9 hPa 0,0 mm 0,0 km/h (0 Bft) N-NO 332 0 min 0,000 mm 0 W/m -2,2 C -0,6 C 0,0 km/h (0 Bft)
23/02/2018 06:55 -0,7 C 89 % 1010,9 hPa 0,0 mm 0,0 km/h (0 Bft) N-NO 331 0 min 0,000 mm 0 W/m -2,3 C -0,7 C 0,0 km/h (0 Bft)
23/02/2018 06:50 -0,7 C 89 % 1010,9 hPa 0,0 mm 0,0 km/h (0 Bft) NO 318 0 min 0,000 mm 0 W/m -2,3 C -0,7 C 0,0 km/h (0 Bft)
23/02/2018 06:45 -0,7 C 89 % 1010,9 hPa 0,0 mm 0,0 km/h (0 Bft) NO 318 0 min 0,000 mm 0 W/m -2,3 C -0,7 C 0,0 km/h (0 Bft)
23/02/2018 06:40 -0,7 C 89 % 1010,9 hPa 0,0 mm 0,0 km/h (0 Bft) NO 318 0 min 0,000 mm 0 W/m -2,3 C -0,7 C 0,0 km/h (0 Bft)
23/02/2018 06:35 -0,8 C 89 % 1010,9 hPa 0,0 mm 0,0 km/h (0 Bft) NO 319 0 min 0,000 mm 0 W/m -2,4 C -0,8 C 0,0 km/h (0 Bft)
23/02/2018 06:30 -0,8 C 89 % 1010,9 hPa 0,0 mm 0,0 km/h (0 Bft) NO 318 0 min 0,000 mm 0 W/m -2,4 C -0,8 C 0,0 km/h (0 Bft)
23/02/2018 06:25 -0,8 C 89 % 1010,8 hPa 0,0 mm 0,0 km/h (0 Bft) NO 318 0 min 0,000 mm 0 W/m -2,4 C -0,8 C 0,0 km/h (0 Bft)
23/02/2018 06:20 -0,8 C 89 % 1010,8 hPa 0,0 mm 0,0 km/h (0 Bft) NO 318 0 min 0,000 mm 0 W/m -2,4 C -0,8 C 0,0 km/h (0 Bft)
23/02/2018 06:15 -0,9 C 89 % 1010,7 hPa 0,0 mm 0,0 km/h (0 Bft) NO 318 0 min 0,000 mm 0 W/m -2,5 C -0,9 C 0,0 km/h (0 Bft)
23/02/2018 06:10 -0,9 C 89 % 1010,8 hPa 0,0 mm 0,0 km/h (0 Bft) NO 319 0 min 0,000 mm 0 W/m -2,5 C -0,9 C 0,0 km/h (0 Bft)
23/02/2018 06:05 -0,9 C 89 % 1010,7 hPa 0,0 mm 0,0 km/h (0 Bft) NO 318 0 min 0,000 mm 0 W/m -2,5 C -0,9 C 0,0 km/h (0 Bft)
23/02/2018 06:00 -0,9 C 89 % 1010,6 hPa 0,0 mm 0,0 km/h (0 Bft) NO 319 0 min 0,000 mm 0 W/m -2,5 C -0,9 C 0,0 km/h (0 Bft)
23/02/2018 05:55 -0,9 C 89 % 1010,7 hPa 0,0 mm 0,0 km/h (0 Bft) NO 318 0 min 0,000 mm 0 W/m -2,5 C -0,9 C 0,0 km/h (0 Bft)
23/02/2018 05:50 -1,0 C 89 % 1010,7 hPa 0,0 mm 0,0 km/h (0 Bft) NO 318 0 min 0,000 mm 0 W/m -2,6 C -1,0 C 0,0 km/h (0 Bft)
23/02/2018 05:45 -1,0 C 89 % 1010,8 hPa 0,0 mm 0,0 km/h (0 Bft) NO 318 0 min 0,000 mm 0 W/m -2,6 C -1,0 C 0,0 km/h (0 Bft)
23/02/2018 05:40 -1,0 C 89 % 1010,8 hPa 0,0 mm 0,4 km/h (0 Bft) NO 318 0 min 0,000 mm 0 W/m -2,6 C -1,0 C 1,6 km/h (1 Bft)
23/02/2018 05:35 -1,1 C 89 % 1010,7 hPa 0,0 mm 0,9 km/h (0 Bft) NO 318 0 min 0,000 mm 0 W/m -2,7 C -1,1 C 3,2 km/h (1 Bft)
23/02/2018 05:30 -1,1 C 89 % 1010,7 hPa 0,0 mm 0,0 km/h (0 Bft) NO 318 0 min 0,000 mm 0 W/m -2,7 C -1,1 C 0,0 km/h (0 Bft)
23/02/2018 05:25 -1,1 C 89 % 1010,8 hPa 0,0 mm 0,0 km/h (0 Bft) NO 318 0 min 0,000 mm 0 W/m -2,7 C -1,1 C 0,0 km/h (0 Bft)
23/02/2018 05:20 -1,1 C 89 % 1010,8 hPa 0,0 mm 0,0 km/h (0 Bft) NO 318 0 min 0,000 mm 0 W/m -2,7 C -1,1 C 0,0 km/h (0 Bft)
23/02/2018 05:15 -1,1 C 89 % 1010,8 hPa 0,0 mm 0,0 km/h (0 Bft) NO 318 0 min 0,000 mm 0 W/m -2,7 C -1,1 C 0,0 km/h (0 Bft)
23/02/2018 05:10 -1,1 C 89 % 1010,8 hPa 0,0 mm 0,0 km/h (0 Bft) NO 318 0 min 0,000 mm 0 W/m -2,7 C -1,1 C 0,0 km/h (0 Bft)
23/02/2018 05:05 -1,1 C 89 % 1010,9 hPa 0,0 mm 0,0 km/h (0 Bft) NO 318 0 min 0,000 mm 0 W/m -2,7 C -1,1 C 0,0 km/h (0 Bft)
23/02/2018 05:00 -1,1 C 89 % 1010,9 hPa 0,0 mm 0,0 km/h (0 Bft) NO 318 0 min 0,000 mm 0 W/m -2,7 C -1,1 C 0,0 km/h (0 Bft)
23/02/2018 04:55 -1,1 C 88 % 1010,9 hPa 0,0 mm 0,0 km/h (0 Bft) NO 318 0 min 0,000 mm 0 W/m -2,8 C -1,1 C 0,0 km/h (0 Bft)
23/02/2018 04:50 -1,2 C 88 % 1010,9 hPa 0,0 mm 0,0 km/h (0 Bft) NO 317 0 min 0,000 mm 0 W/m -2,9 C -1,2 C 0,0 km/h (0 Bft)
23/02/2018 04:45 -1,2 C 88 % 1010,9 hPa 0,0 mm 0,0 km/h (0 Bft) NO 318 0 min 0,000 mm 0 W/m -2,9 C -1,2 C 0,0 km/h (0 Bft)
23/02/2018 04:40 -1,2 C 88 % 1011,0 hPa 0,0 mm 0,0 km/h (0 Bft) NO 318 0 min 0,000 mm 0 W/m -2,9 C -1,2 C 0,0 km/h (0 Bft)
23/02/2018 04:35 -1,2 C 88 % 1011,0 hPa 0,0 mm 0,0 km/h (0 Bft) NO 318 0 min 0,000 mm 0 W/m -2,9 C -1,2 C 0,0 km/h (0 Bft)
23/02/2018 04:30 -1,2 C 88 % 1011,1 hPa 0,0 mm 0,0 km/h (0 Bft) NO 318 0 min 0,000 mm 0 W/m -2,9 C -1,2 C 0,0 km/h (0 Bft)
23/02/2018 04:25 -1,3 C 88 % 1011,1 hPa 0,0 mm 0,0 km/h (0 Bft) NO 318 0 min 0,000 mm 0 W/m -3,0 C -1,3 C 0,0 km/h (0 Bft)
23/02/2018 04:20 -1,3 C 88 % 1011,1 hPa 0,0 mm 0,0 km/h (0 Bft) NO 318 0 min 0,000 mm 0 W/m -3,0 C -1,3 C 0,0 km/h (0 Bft)
23/02/2018 04:15 -1,3 C 88 % 1011,1 hPa 0,0 mm 0,0 km/h (0 Bft) NO 318 0 min 0,000 mm 0 W/m -3,0 C -1,3 C 0,0 km/h (0 Bft)
23/02/2018 04:10 -1,3 C 88 % 1011,1 hPa 0,0 mm 0,0 km/h (0 Bft) NO 319 0 min 0,000 mm 0 W/m -3,0 C -1,3 C 0,0 km/h (0 Bft)
23/02/2018 04:05 -1,3 C 88 % 1011,2 hPa 0,0 mm 0,0 km/h (0 Bft) NO 318 0 min 0,000 mm 0 W/m -3,0 C -1,3 C 0,0 km/h (0 Bft)
23/02/2018 04:00 -1,4 C 88 % 1011,3 hPa 0,0 mm 0,3 km/h (0 Bft) NO 318 0 min 0,000 mm 0 W/m -3,1 C -1,4 C 3,2 km/h (1 Bft)
23/02/2018 03:55 -1,4 C 88 % 1011,3 hPa 0,0 mm 0,4 km/h (0 Bft) NO 318 0 min 0,000 mm 0 W/m -3,1 C -1,4 C 1,6 km/h (1 Bft)
23/02/2018 03:50 -1,4 C 88 % 1011,3 hPa 0,0 mm 1,1 km/h (1 Bft) NO 318 0 min 0,000 mm 0 W/m -3,1 C -1,4 C 3,2 km/h (1 Bft)
23/02/2018 03:45 -1,5 C 88 % 1011,4 hPa 0,0 mm 0,3 km/h (0 Bft) NO 318 0 min 0,000 mm 0 W/m -3,2 C -1,5 C 1,6 km/h (1 Bft)
23/02/2018 03:40 -1,6 C 88 % 1011,4 hPa 0,0 mm 0,5 km/h (0 Bft) NO 318 0 min 0,000 mm 0 W/m -3,3 C -1,6 C 1,6 km/h (1 Bft)
23/02/2018 03:35 -1,7 C 87 % 1011,4 hPa 0,0 mm 0,6 km/h (0 Bft) NO 318 0 min 0,000 mm 0 W/m -3,6 C -1,7 C 3,2 km/h (1 Bft)
23/02/2018 03:30 -1,7 C 87 % 1011,5 hPa 0,0 mm 0,7 km/h (0 Bft) NO 318 0 min 0,000 mm 0 W/m -3,6 C -1,7 C 3,2 km/h (1 Bft)
23/02/2018 03:25 -1,8 C 87 % 1011,5 hPa 0,0 mm 0,4 km/h (0 Bft) NO 318 0 min 0,000 mm 0 W/m -3,7 C -1,8 C 1,6 km/h (1 Bft)
23/02/2018 03:20 -1,9 C 87 % 1011,5 hPa 0,0 mm 1,4 km/h (1 Bft) NO 318 0 min 0,000 mm 0 W/m -3,8 C -1,9 C 4,8 km/h (1 Bft)
23/02/2018 03:15 -2,0 C 87 % 1011,5 hPa 0,0 mm 0,6 km/h (0 Bft) N-NO 332 0 min 0,000 mm 0 W/m -3,9 C -2,0 C 4,8 km/h (1 Bft)
23/02/2018 03:10 -2,1 C 86 % 1011,6 hPa 0,0 mm 0,3 km/h (0 Bft) N-NO 337 0 min 0,000 mm 0 W/m -4,1 C -2,1 C 1,6 km/h (1 Bft)
23/02/2018 03:05 -2,0 C 85 % 1011,6 hPa 0,0 mm 0,1 km/h (0 Bft) N-NO 337 0 min 0,000 mm 0 W/m -4,2 C -2,0 C 1,6 km/h (1 Bft)
23/02/2018 03:00 -1,9 C 85 % 1011,7 hPa 0,0 mm 0,8 km/h (0 Bft) N-NO 338 0 min 0,000 mm 0 W/m -4,1 C -1,9 C 1,6 km/h (1 Bft)
23/02/2018 02:55 -1,8 C 84 % 1011,7 hPa 0,0 mm 0,6 km/h (0 Bft) N-NO 338 0 min 0,000 mm 0 W/m -4,1 C -1,8 C 3,2 km/h (1 Bft)
23/02/2018 02:50 -1,6 C 84 % 1011,8 hPa 0,0 mm 1,0 km/h (0 Bft) N-NO 338 0 min 0,000 mm 0 W/m -3,9 C -1,6 C 3,2 km/h (1 Bft)
23/02/2018 02:45 -1,4 C 84 % 1011,8 hPa 0,0 mm 1,0 km/h (0 Bft) N-NO 337 0 min 0,000 mm 0 W/m -3,7 C -1,4 C 3,2 km/h (1 Bft)
23/02/2018 02:40 -1,3 C 84 % 1011,8 hPa 0,0 mm 0,5 km/h (0 Bft) N-NO 338 0 min 0,000 mm 0 W/m -3,6 C -1,3 C 3,2 km/h (1 Bft)
23/02/2018 02:35 -1,2 C 84 % 1011,8 hPa 0,0 mm 1,4 km/h (1 Bft) N 8 0 min 0,000 mm 0 W/m -3,5 C -1,2 C 4,8 km/h (1 Bft)
23/02/2018 02:30 -1,1 C 83 % 1011,9 hPa 0,0 mm 1,7 km/h (1 Bft) N 4 0 min 0,000 mm 0 W/m -3,6 C -1,1 C 4,8 km/h (1 Bft)
23/02/2018 02:25 -1,0 C 84 % 1011,9 hPa 0,0 mm 1,6 km/h (1 Bft) N 8 0 min 0,000 mm 0 W/m -3,4 C -1,0 C 6,4 km/h (2 Bft)
23/02/2018 02:20 -0,9 C 84 % 1011,9 hPa 0,0 mm 2,6 km/h (1 Bft) N 10 0 min 0,000 mm 0 W/m -3,3 C -0,9 C 8,0 km/h (2 Bft)
23/02/2018 02:15 -0,8 C 83 % 1012,0 hPa 0,0 mm 2,6 km/h (1 Bft) N-NE 27 0 min 0,000 mm 0 W/m -3,3 C -0,8 C 6,4 km/h (2 Bft)
23/02/2018 02:10 -0,8 C 83 % 1012,0 hPa 0,0 mm 3,0 km/h (1 Bft) N-NE 12 0 min 0,000 mm 0 W/m -3,3 C -0,8 C 8,0 km/h (2 Bft)
23/02/2018 02:05 -0,8 C 84 % 1012,0 hPa 0,0 mm 4,8 km/h (1 Bft) NE 38 0 min 0,000 mm 0 W/m -3,2 C -2,4 C 9,7 km/h (2 Bft)
23/02/2018 02:00 -0,8 C 83 % 1012,1 hPa 0,0 mm 3,2 km/h (1 Bft) N-NE 22 0 min 0,000 mm 0 W/m -3,3 C -0,8 C 6,4 km/h (2 Bft)
23/02/2018 01:55 -0,8 C 83 % 1012,1 hPa 0,0 mm 3,4 km/h (1 Bft) N-NE 27 0 min 0,000 mm 0 W/m -3,3 C -0,8 C 8,0 km/h (2 Bft)
23/02/2018 01:50 -0,8 C 83 % 1012,0 hPa 0,0 mm 2,8 km/h (1 Bft) N-NE 14 0 min 0,000 mm 0 W/m -3,3 C -0,8 C 6,4 km/h (2 Bft)
23/02/2018 01:45 -0,8 C 83 % 1012,1 hPa 0,0 mm 0,9 km/h (0 Bft) N-NE 27 0 min 0,000 mm 0 W/m -3,3 C -0,8 C 1,6 km/h (1 Bft)
23/02/2018 01:40 -0,8 C 83 % 1012,1 hPa 0,0 mm 1,9 km/h (1 Bft) N-NE 27 0 min 0,000 mm 0 W/m -3,3 C -0,8 C 6,4 km/h (2 Bft)
23/02/2018 01:35 -0,7 C 82 % 1012,2 hPa 0,0 mm 1,1 km/h (1 Bft) N-NE 31 0 min 0,000 mm 0 W/m -3,4 C -0,7 C 3,2 km/h (1 Bft)
23/02/2018 01:30 -0,6 C 82 % 1012,2 hPa 0,0 mm 0,6 km/h (0 Bft) N 4 0 min 0,000 mm 0 W/m -3,3 C -0,6 C 1,6 km/h (1 Bft)
23/02/2018 01:25 -0,5 C 82 % 1012,3 hPa 0,0 mm 0,8 km/h (0 Bft) N 4 0 min 0,000 mm 0 W/m -3,2 C -0,5 C 4,8 km/h (1 Bft)
23/02/2018 01:20 -0,4 C 82 % 1012,4 hPa 0,0 mm 2,2 km/h (1 Bft) NE 39 0 min 0,000 mm 0 W/m -3,1 C -0,4 C 6,4 km/h (2 Bft)
23/02/2018 01:15 -0,4 C 82 % 1012,4 hPa 0,0 mm 2,6 km/h (1 Bft) N-NE 33 0 min 0,000 mm 0 W/m -3,1 C -0,4 C 8,0 km/h (2 Bft)
23/02/2018 01:10 -0,3 C 82 % 1012,4 hPa 0,0 mm 2,3 km/h (1 Bft) N-NE 15 0 min 0,000 mm 0 W/m -3,0 C -0,3 C 8,0 km/h (2 Bft)
23/02/2018 01:05 -0,2 C 82 % 1012,5 hPa 0,0 mm 1,9 km/h (1 Bft) N-NE 21 0 min 0,000 mm 0 W/m -2,9 C -0,2 C 6,4 km/h (2 Bft)
23/02/2018 01:00 -0,2 C 82 % 1012,5 hPa 0,0 mm 4,0 km/h (1 Bft) N 354 0 min 0,000 mm 0 W/m -2,9 C -0,2 C 9,7 km/h (2 Bft)
23/02/2018 00:55 -0,1 C 82 % 1012,5 hPa 0,0 mm 2,9 km/h (1 Bft) N 350 0 min 0,000 mm 0 W/m -2,8 C -0,1 C 6,4 km/h (2 Bft)
23/02/2018 00:50 -0,1 C 82 % 1012,5 hPa 0,0 mm 4,2 km/h (1 Bft) N-NE 14 0 min 0,000 mm 0 W/m -2,8 C -0,1 C 8,0 km/h (2 Bft)
23/02/2018 00:45 -0,1 C 82 % 1012,6 hPa 0,0 mm 3,4 km/h (1 Bft) N-NE 14 0 min 0,000 mm 0 W/m -2,8 C -0,1 C 9,7 km/h (2 Bft)
23/02/2018 00:40 -0,1 C 82 % 1012,6 hPa 0,0 mm 3,4 km/h (1 Bft) N-NE 14 0 min 0,000 mm 0 W/m -2,8 C -0,1 C 12,9 km/h (3 Bft)
23/02/2018 00:35 -0,1 C 82 % 1012,6 hPa 0,0 mm 2,4 km/h (1 Bft) N 354 0 min 0,000 mm 0 W/m -2,8 C -0,1 C 8,0 km/h (2 Bft)
23/02/2018 00:30 0,0 C 82 % 1012,6 hPa 0,0 mm 3,1 km/h (1 Bft) N 4 0 min 0,000 mm 0 W/m -2,7 C 0,0 C 8,0 km/h (2 Bft)
23/02/2018 00:25 0,0 C 82 % 1012,6 hPa 0,0 mm 3,2 km/h (1 Bft) N-NO 343 0 min 0,000 mm 0 W/m -2,7 C 0,0 C 9,7 km/h (2 Bft)
23/02/2018 00:20 0,0 C 82 % 1012,6 hPa 0,0 mm 3,8 km/h (1 Bft) N-NE 14 0 min 0,000 mm 0 W/m -2,7 C 0,0 C 9,7 km/h (2 Bft)
23/02/2018 00:15 0,0 C 82 % 1012,6 hPa 0,0 mm 3,5 km/h (1 Bft) N 8 0 min 0,000 mm 0 W/m -2,7 C 0,0 C 8,0 km/h (2 Bft)
23/02/2018 00:10 0,1 C 82 % 1012,6 hPa 0,0 mm 1,7 km/h (1 Bft) N 4 0 min 0,000 mm 0 W/m -2,6 C 0,1 C 4,8 km/h (1 Bft)
23/02/2018 00:05 0,1 C 82 % 1012,6 hPa 0,0 mm 2,9 km/h (1 Bft) N-NO 343 0 min 0,000 mm 0 W/m -2,6 C 0,1 C 8,0 km/h (2 Bft)
23/02/2018 00:00 0,1 C 82 % 1012,5 hPa 0,0 mm 3,1 km/h (1 Bft) N-NE 21 0 min 0,000 mm 0 W/m -2,6 C 0,1 C 8,0 km/h (2 Bft)
_ Min-Heure 03:10 00:00 06:00 - 04:05 - - - - - 03:05 02:05 04:05
Minimum _ -2,1 C 82 % 1010,6 hPa - 0,0 km/h (0 Bft) - - - - - -4,2 C -2,4 C 0,0 km/h (0 Bft)
_ Max-Heure 00:00 05:00 00:05 00:00 02:05 - - 00:00 00:00 00:00 07:05 00:00 00:40
Maximum _ 0,1 C 89 % 1012,6 hPa 0,0 mm 4,8 km/h
NE (1 Bft)
- - 0 min 0,000 mm 0 W/m -2,1 C 0,1 C 12,9 km/h
N (3 Bft)
Moyenne _ -0,9 C 86 % 1011,5 hPa #0,0 mm 1,1 km/h (1 Bft) N-NE - #0 min. #0,000 mm 0 W/m -3,0 C -0,9 C 3,2 km/h (1 Bft)